Regional Weather Roundup
Issued by NWS

Home | Current Version | Previous Version | Graphics & Text | Print | Product List | Glossary On
Versions: 1 2 3 4 5 6 7 8 9 10 11 12 13 14 15 16 17 18 19 20 21 22 23 24 25 26 27 28 29 30 31 32 33 34 35 36 37 38 39 40 41 42 43 44 45 46 47 48 49 50
984
ASUS45 KSLC 280110
RWRUT

UTAH REGIONAL WEATHER ROUNDUP
NATIONAL WEATHER SERVICE SALT LAKE CITY UT
700 PM MDT SAT MAY 27 2017

UTZ001>011-023>025-280200-

NORTHERN UTAH

CITY           SKY/WX    TMP DP  RH WIND       PRES   REMARKS
BRIGHAM CITY   PTSUNNY   71  27  19 N10       30.20F
HILL AFB       SUNNY     67  33  27 NW13      30.21S
LOGAN          MOSUNNY   69  38  32 N8        30.21S
OGDEN          SUNNY     68  33  27 NW14      30.19F
SALT LAKE CITY MOSUNNY   70  38  31 NW8       30.19F
TOOELE VALLEY  SUNNY     64  36  34 CALM      30.22F
WENDOVER       SUNNY     71  22  15 SE8       30.20F
HEBER CITY     MOSUNNY   66  34  30 N13       30.20S
WEST JORDAN    SUNNY     65  44  45 NW7       30.22S

$$

UTZ011>015-024>027-280200-

CENTRAL/NORTHEAST UTAH

CITY           SKY/WX    TMP DP  RH WIND       PRES   REMARKS
PROVO AIRPORT  SUNNY     67  41  38 NW14      30.19F
MOAB/CANYONLAN SUNNY     76  22  13 NE15      30.07R
DELTA          SUNNY     70  25  18 N13       30.17S
PRICE          CLOUDY    69  27  20 MISG      30.17R
ROOSEVELT      SUNNY     70  28  21 SE3       30.18S
VERNAL         MOSUNNY   67  24  19 NE13      30.17S

$$

UTZ013>016-019>022-027-280200-

SOUTHERN UTAH

CITY           SKY/WX    TMP DP  RH WIND       PRES   REMARKS
BRYCE CANYON   MOSUNNY   64  21  19 NW13G18   30.24R
CEDAR CITY     SUNNY     70  23  17 N13       30.16S
MILFORD        SUNNY     72  23  16 NE15      30.16S
ST GEORGE      PTCLDY    86  24  10 VRB5      29.98S
HANKSVILLE     SUNNY     79  18  10 NW5       30.07S
BLANDING       SUNNY     70  18  13 N15G23    30.20R

$$

REGIONAL REPORTS     COLORADO/ARIZONA

CITY           SKY/WX    TMP DP  RH WIND       PRES   REMARKS
CRAIG, CO      MOSUNNY   56  38  50 SE14      30.24R
GRAND JUNCTION PTSUNNY   71  25  17 NE13      30.12R
RIFLE, CO      MOSUNNY   65  26  23 N15       30.18R
MONTROSE, CO   PTSUNNY   65  26  23 N17       30.17R
CORTEZ, CO     SUNNY     71  14  11 N16G23    30.11R
COLORADO CITY    N/A     81  27  13 NW12G18   30.12S
PAGE, AZ       SUNNY     82  27  13 CALM      30.01F
GRAND CANYON   MOSUNNY   71  20  14 W8        30.18S
KINGMAN, AZ    SUNNY     85  26  11 W14       30.00S
FLAGSTAFF, AZ  MOSUNNY   68  18  14 W8        30.18S

$$

REGIONAL REPORTS    NEVADA/IDAHO/WYOMING

CITY           SKY/WX    TMP DP  RH WIND       PRES   REMARKS
LAS VEGAS, NV  MOSUNNY   89  22   8 S5        29.91F
ELY, NY        MOSUNNY   69  24  18 N12       30.20F
ELKO, NV       MOSUNNY   72  25  17 NE8       30.19S
POCATELLO, ID  MOSUNNY   67  39  35 NW6       30.24S
BURLEY, ID     SUNNY     70  35  27 CALM      30.20S
FORT BRIDGER,    N/A     60  26  27 NW13      30.31R
EVANSTON, WY   MOSUNNY   56  28  34 NW10      30.30S
ROCK SPRINGS,  MOSUNNY   58  24  27 NW10      30.25S
KEMMERER, WY     N/A     57  28  33 NW18      30.30R

$$




USA.gov is the U.S. government's official web portal to all federal, state and local government web resources and services.